Regional Weather Roundup
Issued by NWS Sterling, VA

Home | Current Version | Previous Version | Graphics & Text | Print | Product List | Glossary On
Versions: 1 2 3 4 5 6 7 8 9 10 11 12 13 14 15 16 17 18 19 20 21 22 23 24 25 26 27
000
ASUS41 KLWX 192310
RWRLWX

REGIONAL WEATHER ROUNDUP
NATIONAL WEATHER SERVICE BALTIMORE MD/WASHINGTON DC
600 PM EST THU JAN 19 2017

Note: "FAIR" indicates few or no clouds below 12,000 feet
with no significant weather and/or obstructions to visibility.
 TC=TEMPERATURE CELSIUS

 * =Non NWS site. Station does not report precipitation (e.g. rain,
    snow, etc.), thunder, or fog.

DCZ001-MDZ009-015-VAZ040>042-051-053>054-200000-
WASHINGTON METRO

CITY           SKY/WX    TMP DP  RH WIND       PRES   REMARKS
WASHINGTON NAT CLOUDY    49  37  63 NW5       30.03S
DULLES         MOCLDY    46  35  65 CALM      30.02R
ANDREWS AFB    CLOUDY    42  36  77 CALM      30.01F
FT BELVOIR     CLOUDY    44  37  75 CALM      30.02S
QUANTICO       CLOUDY    45  38  76 CALM      30.03S
COLLEGE PARK*  CLOUDY    41  34  75 CALM      30.02R
LEESBURG*      CLOUDY    46  39  76 CALM      30.03R
MANASSAS*      CLEAR    N/A N/A N/A CALM      30.03R
GAITHERSBURG*  CLEAR     43  30  61 CALM      30.05R

$$

MDZ006>007-011-014-200000-
BALTIMORE METRO

CITY           SKY/WX    TMP DP  RH WIND       PRES   REMARKS
BWI AIRPORT    CLOUDY    44  36  73 NW3       30.01S
MD SCIENCE CTR   N/A     51  34  52 MISG      30.01S
MARTIN STATE   CLEAR     43  39  87 CALM      30.03F
ANNAPOLIS      CLOUDY    44  36  73 CALM      30.02S
FORT MEADE*    CLOUDY    39  34  81 CALM      30.04S

$$

MDZ012-015-019>023-200000-
MARYLAND EASTERN SHORE

CITY           SKY/WX    TMP DP  RH WIND       PRES   REMARKS
OCEAN CITY     CLOUDY    40  39  97 S3        30.04S
SALISBURY      CLOUDY    42  36  79 S3        30.03F
BAY BRIDGE AP* CLOUDY    43  36  75 CALM      30.02F
CAMBRIDGE*     PTCLDY    39  36  87 CALM      30.02F
EASTON*        CLEAR     45  36  70 CALM      30.06S

$$

MDZ017>025-200000-
SOUTHERN MARYLAND

CITY           SKY/WX    TMP DP  RH WIND       PRES   REMARKS
PATUXENT RIVER CLOUDY    43  35  73 S5        30.03R
ST INIGOES     CLOUDY    41  37  86 CALM      30.03R
LEONARDTOWN*   CLOUDY    41  36  81 CALM      30.05R

$$

MDZ003>005-200000-
NORTH CENTRAL MARYLAND

CITY           SKY/WX    TMP DP  RH WIND       PRES   REMARKS
FREDERICK*     CLEAR     43  37  81 CALM      30.04S
HAGERSTOWN APT CLEAR     45  33  63 CALM      30.00F
WESTMINSTER*   CLOUDY    43  36  75 CALM      30.00F

$$

MDZ501>502-200000-
WESTERN MARYLAND

CITY           SKY/WX    TMP DP  RH WIND       PRES   REMARKS
OAKLAND*         N/A     37  36  93 CALM      29.96S
CUMBERLAND*    CLEAR     45  36  70 CALM      30.03F

$$

VAZ025>031-200000-
SHENANDOAH VALLEY

CITY           SKY/WX    TMP DP  RH WIND       PRES   REMARKS
WINCHESTER*    CLEAR     37  34  87 CALM      30.01R
FRONT ROYAL*   CLEAR     43  36  75 CALM      29.99F
LURAY*         PTCLDY    41  37  87 CALM      29.99R
NEW MARKET*    PTCLDY    42  37  80 CALM      29.98S
STAUNTON*      PTCLDY    45  39  80 CALM      30.00R
WAYNESBORO*    PTCLDY    49  38  66 CALM      29.98S

$$

WVZ021-048>050-054>055-200000-
EASTERN WEST VIRGINIA PANHANDLE

CITY           SKY/WX    TMP DP  RH WIND       PRES   REMARKS
MARTINSBURG    CLEAR     43  34  70 CALM      30.01R
PETERSBURG*    CLOUDY    42  38  86 CALM      30.00R

$$

VAZ036>039-050-200000-
CENTRAL FOOTHILLS

CITY           SKY/WX    TMP DP  RH WIND       PRES   REMARKS
CHARLOTTESVILL PTCLDY    51  39  63 E5        30.00R
CULPEPER*      CLOUDY    41  37  86 CALM      30.03S
ORANGE*          N/A     43  39  87 CALM      30.03R
GORDONSVILLE*  CLOUDY    45  40  81 CALM      30.01R
WARRENTON*     CLOUDY    40  34  78 SE3       30.01F

$$

VAZ055>057-200000-
NORTH AND CENTRAL PIEDMONT

CITY           SKY/WX    TMP DP  RH WIND       PRES   REMARKS
FREDERICKSBRG* CLOUDY    46  39  76 CALM      30.02R
STAFFORD*      CLOUDY    42  37  81 CALM      30.06S

$$

NCZ024-NYZ072-PAZ021-071-VAZ022-071-200000-
OTHER REGIONAL OBSERVATIONS

CITY           SKY/WX    TMP DP  RH WIND       PRES   REMARKS
NEW YORK CITY  CLOUDY    44  33  65 VRB5      30.03R
PHILADELPHIA   CLOUDY    46  34  62 N3        30.05R
PITTSBURGH     PTCLDY    39  34  82 CALM      29.98F
ROANOKE        CLOUDY    55  38  52 SE8       30.00R
RICHMOND       CLOUDY    48  40  73 E3        30.02S
RALEIGH        MOCLDY    54  40  59 CALM      30.01S

$$

ANZ530>537-200000-
MARINE OBSERVATIONS

STATION/POSITION TIME  TEMP    WIND        PRES
                       AIR SEA DIR/SP/G
                 (UTC) (F)     (DEG/KT/KT) (MB)
THOMAS PT LIGHT  2300   44 40  200/  6/  7   N/A
BALT KEY BRIDGE  2242   49      CALM  /  1 1016.4S
COVE POINT       2242   45     200/  3/  4 1017.4R
LEWISETTA        2242   45 44  130/  5/  6 1016.9R
SOLOMONS ISLAND  2242   44 41  100/  4/  4   N/A
PINEY POINT      2236          150/  7/  7   N/A

$$





USA.gov is the U.S. government's official web portal to all federal, state and local government web resources and services.